2023/09/15 00:00:00, 0.2,22.1
2023/09/15 00:10:00, 0.1,22.0
2023/09/15 00:20:00, 0.0,22.1
2023/09/15 00:30:00, 0.1,21.9
2023/09/15 00:40:00, 0.1,22.1
2023/09/15 00:50:00, 0.1,22.3
2023/09/15 01:00:00, 0.1,21.8
2023/09/15 01:10:00, 0.1,22.0
2023/09/15 01:20:00, 0.1,22.1
2023/09/15 01:30:00, 0.1,22.0
2023/09/15 01:40:00, 0.2,21.9
2023/09/15 01:50:00, 0.2,21.7
2023/09/15 02:00:00, 0.2,21.9
2023/09/15 02:10:00, 0.2,21.9
2023/09/15 02:20:00, 0.1,21.9
2023/09/15 02:30:00, 0.2,21.8
2023/09/15 02:40:00, 0.2,21.9
2023/09/15 02:50:00, 0.2,21.9
2023/09/15 03:00:00, 0.2,21.7
2023/09/15 03:10:00, 0.2,21.5
2023/09/15 03:20:00, 0.4,21.5
2023/09/15 03:30:00, 1.8,21.6
2023/09/15 03:40:00, 3.8,21.6
2023/09/15 03:50:00, 3.5,21.8
2023/09/15 04:00:00, 3.5,21.2
2023/09/15 04:10:00, 0.4,21.6
2023/09/15 04:20:00, 0.2,21.5
2023/09/15 04:30:00, 0.1,21.6
2023/09/15 04:40:00, 0.1,21.6
2023/09/15 04:50:00, 0.1,21.5
2023/09/15 05:00:00, 0.1,21.3
2023/09/15 05:10:00, 0.2,21.4
2023/09/15 05:20:00, 0.1,21.6
2023/09/15 05:30:00, 0.1,21.6
2023/09/15 05:40:00, 0.1,21.5
2023/09/15 05:50:00, 0.2,21.6
2023/09/15 06:00:00, 3.6,21.5
2023/09/15 06:10:00, 5.4,21.7
2023/09/15 06:20:00, 5.3,21.5
2023/09/15 06:30:00, 5.5,21.8
2023/09/15 06:40:00, 4.1,21.7
2023/09/15 06:50:00, 0.7,21.8
2023/09/15 07:00:00, 0.3,22.0
2023/09/15 07:10:00, 0.2,21.9
2023/09/15 07:20:00, 0.2,22.1
2023/09/15 07:30:00, 0.1,22.0
2023/09/15 07:40:00, 0.0,22.3
2023/09/15 07:50:00, 0.1,22.3
2023/09/15 08:00:00, 0.1,22.3
2023/09/15 08:10:00, 0.1,22.7
2023/09/15 08:20:00, 0.1,23.1
2023/09/15 08:30:00, 0.2,23.3
2023/09/15 08:40:00, 0.3,23.7
2023/09/15 08:50:00, 4.1,23.9
2023/09/15 09:00:00, 6.6,23.8
2023/09/15 09:10:00, 7.2,24.2
2023/09/15 09:20:00, 7.8,24.3
2023/09/15 09:30:00, 8.1,25.2
2023/09/15 09:40:00, 8.3,25.4
2023/09/15 09:50:00, 8.6,25.9
2023/09/15 10:00:00, 9.1,26.2
2023/09/15 10:10:00, 7.0,27.2
2023/09/15 10:20:00, 0.6,26.4
2023/09/15 10:30:00, 0.7,26.5
2023/09/15 10:40:00, 0.5,27.1
2023/09/15 10:50:00, 0.4,26.7
2023/09/15 11:00:00, 0.3,27.1
2023/09/15 11:10:00, 0.2,27.6
2023/09/15 11:20:00, 0.2,27.7
2023/09/15 11:30:00, 0.1,28.8
2023/09/15 11:40:00, 0.2,29.1
2023/09/15 11:50:00, 1.1,28.7
2023/09/15 12:00:00, 1.9,28.6
2023/09/15 12:10:00, 0.6,27.7
2023/09/15 12:20:00, 0.1,27.5
2023/09/15 12:30:00, 0.1,27.0
2023/09/15 12:40:00, 8.1,27.6
2023/09/15 12:50:00,11.4,28.6
2023/09/15 13:00:00, 7.1,28.4
2023/09/15 13:10:00,11.5,28.1
2023/09/15 13:20:00,11.4,28.7
2023/09/15 13:30:00,11.7,29.2
2023/09/15 13:40:00,11.3,28.6
2023/09/15 13:50:00,10.3,28.5
2023/09/15 14:00:00,10.6,30.5
2023/09/15 14:10:00,11.8,30.1
2023/09/15 14:20:00,11.9,30.3
2023/09/15 14:30:00,11.5,30.2
2023/09/15 14:40:00,10.9,29.5
2023/09/15 14:50:00, 9.8,28.6
2023/09/15 15:00:00, 9.8,28.6
2023/09/15 15:10:00,10.2,28.5
2023/09/15 15:20:00,11.0,27.9
2023/09/15 15:30:00,11.4,28.2
2023/09/15 15:40:00,11.2,28.2
2023/09/15 15:50:00,10.2,28.1
2023/09/15 16:00:00, 9.3,27.0
2023/09/15 16:10:00, 8.6,27.4
2023/09/15 16:20:00, 8.3,27.1
2023/09/15 16:30:00, 8.7,27.2
2023/09/15 16:40:00, 9.2,27.6
2023/09/15 16:50:00,10.0,27.6
2023/09/15 17:00:00,10.8,27.2
2023/09/15 17:10:00,10.8,26.7
2023/09/15 17:20:00,10.4,26.5
2023/09/15 17:30:00, 9.5,26.2
2023/09/15 17:40:00, 8.5,26.0
2023/09/15 17:50:00, 1.3,25.5
2023/09/15 18:00:00, 0.1,25.5
2023/09/15 18:10:00, 0.2,25.2
2023/09/15 18:20:00, 6.3,25.1
2023/09/15 18:30:00, 8.6,24.9
2023/09/15 18:40:00, 8.8,24.6
2023/09/15 18:50:00, 8.8,24.5
2023/09/15 19:00:00, 8.7,24.3
2023/09/15 19:10:00, 8.4,24.2
2023/09/15 19:20:00, 8.1,24.2
2023/09/15 19:30:00, 5.2,24.1
2023/09/15 19:40:00, 0.6,24.0
2023/09/15 19:50:00, 0.3,24.0
2023/09/15 20:00:00, 0.3,24.0
2023/09/15 20:10:00, 0.9,24.0
2023/09/15 20:20:00, 7.3,23.5
2023/09/15 20:30:00, 6.3,24.0
2023/09/15 20:40:00, 5.5,23.9
2023/09/15 20:50:00, 4.9,23.8
2023/09/15 21:00:00, 4.6,23.8
2023/09/15 21:10:00, 5.1,23.8
2023/09/15 21:20:00, 6.2,23.8
2023/09/15 21:30:00, 7.4,23.7
2023/09/15 21:40:00, 4.6,23.7
2023/09/15 21:50:00, 0.9,23.7
2023/09/15 22:00:00, 1.0,23.6
2023/09/15 22:10:00, 0.8,23.6
2023/09/15 22:20:00, 8.7,23.6
2023/09/15 22:30:00, 8.8,23.7
2023/09/15 22:40:00, 8.6,23.3
2023/09/15 22:50:00, 8.0,23.5
2023/09/15 23:00:00, 7.7,23.3
2023/09/15 23:10:00, 7.7,23.3
2023/09/15 23:20:00, 8.2,23.2
2023/09/15 23:30:00, 8.8,23.4
2023/09/15 23:40:00, 8.9,23.5
2023/09/15 23:50:00, 0.2,23.4
